#timestamp,LO_Frequency,Hit,Temp,Hum 
1480467615.5,286046333.1,N,0.0,0.0
1480467635.3,286046330.0,N,0.0,0.0
1480467655.2,286046327.3,N,0.0,0.0
1480467675.0,286046325.5,N,0.0,0.0
1480467675.9,286046325.5,N,0.0,0.0
1480467695.8,286046325.7,N,0.0,0.0
1480467715.6,286046324.2,N,0.0,0.0
1480467735.4,286046322.3,N,0.0,0.0
1480467755.3,286046316.8,N,0.0,0.0
1480467775.1,286046316.4,N,0.0,0.0
1480467795.9,286046314.8,N,0.0,0.0
1480467815.7,286046314.7,N,0.0,0.0
1480467835.5,286046310.8,N,0.0,0.0
1480467855.4,286046309.2,N,0.0,0.0
1480467875.2,286046307.0,N,0.0,0.0
1480467895.0,286046308.8,N,0.0,0.0
1480467896.0,286046308.8,N,0.0,0.0
1480467915.8,286046307.3,N,0.0,0.0
1480467935.6,286046307.5,N,0.0,0.0
1480467955.5,286046303.9,N,0.0,0.0
1480467975.3,286046304.1,N,0.0,0.0
1480467995.1,286046303.9,N,0.0,0.0
1480468015.9,286046306.7,N,0.0,0.0
1480468035.7,286046304.8,N,0.0,0.0
1480468055.6,286046305.0,N,0.0,0.0
1480468075.4,286046304.3,N,0.0,0.0
1480468095.2,286046306.7,N,0.0,0.0
1480468115.1,286046304.2,N,0.0,0.0
1480468116.0,286046304.2,N,0.0,0.0
1480468135.8,286046304.4,N,0.0,0.0
1480468155.7,286046304.9,N,0.0,0.0
1480468175.5,286046304.3,N,0.0,0.0
1480468195.3,286046303.9,N,0.0,0.0
1480468215.2,286046305.0,N,0.0,0.0
1480468235.9,286046303.1,N,0.0,0.0
1480468255.7,286046300.8,N,0.0,0.0
1480468275.6,286046301.9,N,0.0,0.0
1480468295.4,286046299.2,N,0.0,0.0
1480468315.3,286046299.9,N,0.0,0.0
1480468335.1,286046299.3,N,0.0,0.0
1480468336.0,286046299.3,N,0.0,0.0
1480468355.8,286046299.5,N,0.0,0.0
1480468375.7,286046300.0,N,0.0,0.0
1480468395.5,286046297.5,N,0.0,0.0
1480468415.3,286046300.2,N,0.0,0.0
1480468435.2,286046300.2,N,0.0,0.0
1480468455.0,286046297.4,N,0.0,0.0
1480468455.9,286046297.4,N,0.0,0.0
1480468475.8,286046297.5,N,0.0,0.0
1480468495.6,286046300.0,N,0.0,0.0
1480468515.4,286046300.4,N,0.0,0.0
1480468535.3,286046297.7,N,0.0,0.0
1480468555.1,286046297.7,N,0.0,0.0
1480468575.9,286046302.0,N,0.0,0.0
1480468595.7,286046299.5,N,0.0,0.0
1480468615.5,286046301.6,N,0.0,0.0
1480468635.4,286046299.2,N,0.0,0.0
1480468655.2,286046299.2,N,0.0,0.0
1480468675.1,286046300.1,N,0.0,0.0
1480468676.0,286046300.1,N,0.0,0.0
1480468695.8,286046298.3,N,0.0,0.0
1480468715.6,286046296.1,N,0.0,0.0
1480468735.5,286046296.5,N,0.0,0.0
1480468755.3,286046292.5,N,0.0,0.0
1480468775.2,286046293.5,N,0.0,0.0
1480468795.9,286046289.4,N,0.0,0.0
1480468815.7,286046288.3,N,0.0,0.0
1480468835.6,286046286.1,N,0.0,0.0
1480468855.4,286046284.6,N,0.0,0.0
1480468875.2,286046285.0,N,0.0,0.0
1480468895.1,286046284.4,N,0.0,0.0
1480468896.0,286046284.4,N,0.0,0.0
1480468915.8,286046282.5,N,0.0,0.0
1480468935.7,286046278.3,N,0.0,0.0
1480468955.5,286046276.7,N,0.0,0.0
1480468975.3,286046275.8,N,0.0,0.0
1480468995.2,286046274.8,N,0.0,0.0
1480469015.0,286046272.6,N,0.0,0.0
1480469015.9,286046272.6,N,0.0,0.0
1480469035.8,286046271.1,N,0.0,0.0
1480469055.6,286046271.1,N,0.0,0.0
1480469075.4,286046267.5,N,0.0,0.0
1480469095.3,286046266.2,N,0.0,0.0
1480469115.1,286046264.6,N,0.0,0.0
1480469135.9,286046266.8,N,0.0,0.0
1480469155.7,286046262.3,N,0.0,0.0
1480469175.5,286046263.4,N,0.0,0.0
1480469195.4,286046260.7,N,0.0,0.0
1480469215.2,286046261.5,N,0.0,0.0
1480469235.0,286046259.7,N,0.0,0.0
1480469235.9,286046259.7,N,0.0,0.0
1480469255.8,286046257.4,N,0.0,0.0
1480469275.6,286046258.0,N,0.0,0.0
1480469295.5,286046258.1,N,0.0,0.0
1480469315.3,286046256.5,N,0.0,0.0
1480469335.1,286046254.1,N,0.0,0.0
1480469355.9,286046254.9,N,0.0,0.0
1480469375.7,286046255.0,N,0.0,0.0
1480469395.6,286046255.5,N,0.0,0.0
1480469415.4,286046252.9,N,0.0,0.0
1480469435.2,286046251.0,N,0.0,0.0
1480469455.1,286046253.5,N,0.0,0.0
1480469456.0,286046253.5,N,0.0,0.0
1480469475.8,286046251.9,N,0.0,0.0
1480469495.6,286046251.8,N,0.0,0.0
1480469515.5,286046252.0,N,0.0,0.0
1480469535.3,286046251.0,N,0.0,0.0
1480469555.2,286046252.1,N,0.0,0.0
1480469575.9,286046252.2,N,0.0,0.0
1480469595.7,286046251.4,N,0.0,0.0
1480469615.6,286046255.6,N,0.0,0.0
1480469635.4,286046252.6,N,0.0,0.0
1480469655.3,286046253.2,N,0.0,0.0
1480469675.1,286046253.3,N,0.0,0.0
1480469676.0,286046253.3,N,0.0,0.0
1480469695.8,286046253.4,N,0.0,0.0
1480469715.7,286046251.1,N,0.0,0.0
1480469735.5,286046251.8,N,0.0,0.0
1480469755.3,286046251.4,N,0.0,0.0
1480469775.2,286046251.3,N,0.0,0.0
1480469795.0,286046251.8,N,0.0,0.0
1480469795.9,286046251.8,N,0.0,0.0
1480469815.8,286046251.4,N,0.0,0.0
1480469835.6,286046252.1,N,0.0,0.0
1480469855.5,286046253.6,N,0.0,0.0
1480469875.3,286046251.8,N,0.0,0.0
1480469895.1,286046251.3,N,0.0,0.0
1480469915.9,286046253.5,N,0.0,0.0
1480469935.7,286046253.9,N,0.0,0.0
1480469955.5,286046251.4,N,0.0,0.0
1480469975.4,286046253.5,N,0.0,0.0
1480469995.2,286046252.2,N,0.0,0.0
1480470015.1,286046251.0,N,0.0,0.0
1480470016.0,286046251.0,N,0.0,0.0
1480470035.8,286046253.6,N,0.0,0.0
1480470055.6,286046251.3,N,0.0,0.0
1480470075.5,286046253.9,N,0.0,0.0
1480470095.3,286046252.6,N,0.0,0.0
1480470115.2,286046253.8,N,0.0,0.0
1480470135.9,286046251.3,N,0.0,0.0
1480470155.7,286046252.0,N,0.0,0.0
1480470175.6,286046253.4,N,0.0,0.0
1480470195.4,286046253.3,N,0.0,0.0
1480470215.2,286046251.3,N,0.0,0.0
1480470235.1,286046250.9,N,0.0,0.0
1480470236.0,286046250.9,N,0.0,0.0
1480470255.8,286046253.8,N,0.0,0.0
1480470275.7,286046249.5,N,0.0,0.0
1480470295.5,286046251.7,N,0.0,0.0
1480470315.3,286046249.6,N,0.0,0.0
1480470335.2,286046252.4,N,0.0,0.0
1480470355.0,286046249.3,N,0.0,0.0
1480470355.9,286046249.3,N,0.0,0.0
1480470375.8,286046250.4,N,0.0,0.0
1480470395.6,286046249.9,N,0.0,0.0
1480470415.4,286046251.8,N,0.0,0.0
1480470435.3,286046249.7,N,0.0,0.0
1480470455.1,286046248.4,N,0.0,0.0
1480470475.9,286046249.8,N,0.0,0.0
1480470495.7,286046250.8,N,0.0,0.0
1480470515.5,286046250.5,N,0.0,0.0
1480470535.4,286046248.7,N,0.0,0.0
1480470555.2,286046247.9,N,0.0,0.0
1480470575.0,286046250.8,N,0.0,0.0
1480470576.0,286046250.8,N,0.0,0.0
1480470595.8,286046247.8,N,0.0,0.0
1480470615.6,286046247.7,N,0.0,0.0
1480470635.5,286046249.2,N,0.0,0.0
1480470655.3,286046246.2,N,0.0,0.0
1480470675.1,286046246.1,N,0.0,0.0
1480470695.9,286046247.2,N,0.0,0.0
1480470715.7,286046247.8,N,0.0,0.0
1480470735.6,286046248.4,N,0.0,0.0
1480470755.4,286046246.5,N,0.0,0.0
1480470775.2,286046246.8,N,0.0,0.0
1480470795.1,286046245.0,N,0.0,0.0
1480470796.0,286046245.0,N,0.0,0.0
1480470815.8,286046247.1,N,0.0,0.0
1480470835.7,286046246.8,N,0.0,0.0
1480470855.5,286046248.0,N,0.0,0.0
1480470875.3,286046250.1,N,0.0,0.0
1480470895.2,286046249.9,N,0.0,0.0
1480470915.0,286046249.4,N,0.0,0.0
1480470915.9,286046249.4,N,0.0,0.0
1480470935.7,286046249.6,N,0.0,0.0
1480470955.6,286046247.9,N,0.0,0.0
1480470975.4,286046252.3,N,0.0,0.0
1480470995.3,286046252.0,N,0.0,0.0
1480471015.1,286046252.4,N,0.0,0.0
1480471035.8,286046249.7,N,0.0,0.0
1480471055.7,286046251.2,N,0.0,0.0
1480471075.5,286046251.7,N,0.0,0.0
1480471095.4,286046253.9,N,0.0,0.0
1480471115.2,286046253.7,N,0.0,0.0
1480471135.0,286046255.6,N,0.0,0.0
1480471135.9,286046255.6,N,0.0,0.0
1480471155.8,286046253.2,N,0.0,0.0
1480471175.6,286046252.6,N,0.0,0.0
1480471195.5,286046252.7,N,0.0,0.0
